N1UNH Weather Reports


Display with metric or nautical units.
time (UTC)temp
F
wind
direction
speed
MPH
gust
MPH
rain 1hr
in
rain 24hr
in
rain mn
in
humidity
%
barometer
mb
20260510230822 67 202 1.0 2.0 0.00 0.01 0.01 40 1017.8
20260510230317 67 202 2.0 3.0 0.00 0.01 0.01 37 1017.8
20260510225814 67 202 0.0 0.0 0.00 0.01 0.01 37 1017.6
20260510225310 67 202 1.0 1.0 0.00 0.01 0.01 36 1017.4
20260510224806 68 202 2.0 2.0 0.00 0.01 0.01 36 1017.4
20260510224302 68 202 2.0 3.0 0.00 0.01 0.01 37 1017.2
20260510223800 68 202 2.0 2.0 0.00 0.01 0.01 40 1017.3
20260510223256 68 202 2.0 2.0 0.00 0.01 0.01 37 1017.3
20260510222754 68 202 1.0 1.0 0.00 0.01 0.01 38 1016.9
20260510222251 68 202 3.0 3.0 0.00 0.01 0.01 38 1016.9
20260510221746 69 202 1.0 1.0 0.00 0.01 0.01 40 1016.9
20260510221243 69 202 2.0 2.0 0.00 0.01 0.01 38 1016.8
20260510220739 69 202 1.0 1.0 0.00 0.01 0.01 41 1016.5
20260510220235 69 202 1.0 1.0 0.00 0.01 0.01 40 1016.5
20260510215732 69 202 0.0 1.0 0.00 0.01 0.01 43 1016.3
20260510215230 69 202 1.0 1.0 0.00 0.01 0.01 43 1016.3
20260510214727 70 202 0.0 0.0 0.00 0.01 0.01 45 1016.4
20260510214224 69 202 0.0 0.0 0.00 0.01 0.01 44 1016.4
20260510213721 70 202 1.0 1.0 0.00 0.01 0.01 43 1016.2
20260510213217 70 202 1.0 1.0 0.00 0.01 0.01 45 1016.3
20260510212713 71 201 1.0 2.0 0.00 0.01 0.01 41 1016.3
20260510212211 72 202 1.0 1.0 0.00 0.01 0.01 43 1016.5
20260510211707 72 202 1.0 1.0 0.00 0.01 0.01 46 1016.3
20260510211202 73 202 0.0 0.0 0.00 0.01 0.01 45 1016.1
20260510210659 73 202 1.0 1.0 0.00 0.01 0.01 44 1016.3
20260510210154 73 202 1.0 1.0 0.00 0.01 0.01 41 1016.0
20260510205654 72 203 1.0 2.0 0.00 0.01 0.01 41 1016.0
20260510205149 73 201 4.0 4.0 0.00 0.01 0.01 41 1016.1
20260510204646 72 202 1.0 1.0 0.00 0.01 0.01 44 1016.2
20260510204143 72 202 1.0 1.0 0.00 0.01 0.01 43 1016.3
20260510203640 72 202 0.0 0.0 0.00 0.01 0.01 48 1016.3
20260510203137 71 202 1.0 1.0 0.00 0.01 0.01 47 1016.2
20260510202636 72 202 2.0 2.0 0.00 0.01 0.01 42 1016.1
20260510202132 72 202 1.0 1.0 0.00 0.01 0.01 47 1016.1
20260510201630 72 202 1.0 1.0 0.00 0.01 0.01 56 1016.2
20260510201126 71 202 2.0 2.0 0.00 0.01 0.01 53 1015.9
20260510200622 71 202 1.0 2.0 0.00 0.01 0.01 56 1016.1
20260510200121 69 203 1.0 1.0 0.00 0.01 0.01 62 1016.2
20260510195618 68 202 0.0 0.0 0.00 0.01 0.01 63 1016.2
20260510195114 69 202 1.0 1.0 0.00 0.01 0.01 59 1016.4
20260510194613 70 202 0.0 0.0 0.00 0.01 0.01 59 1016.2
20260510194110 71 202 1.0 1.0 0.00 0.01 0.01 57 1016.2
20260510193610 72 203 1.0 1.0 0.00 0.01 0.01 55 1016.2
20260510193106 71 202 2.0 2.0 0.00 0.01 0.01 58 1016.6
20260510192601 70 202 1.0 1.0 0.00 0.01 0.01 59 1016.3
20260510192057 71 202 1.0 1.0 0.00 0.01 0.01 50 1016.3
20260510191553 73 203 1.0 1.0 0.00 0.01 0.01 50 1016.3
20260510191051 72 203 0.0 0.0 0.00 0.01 0.01 47 1016.4
20260510190548 72 203 1.0 1.0 0.00 0.01 0.01 51 1016.3
20260510190046 72 203 1.0 1.0 0.00 0.01 0.01 48 1016.5
20260510185542 70 203 0.0 0.0 0.00 0.01 0.01 54 1016.4
20260510185040 69 203 1.0 1.0 0.00 0.01 0.01 55 1016.5
20260510184537 67 203 1.0 2.0 0.00 0.01 0.01 58 1016.6
20260510184032 66 202 0.0 0.0 0.00 0.01 0.01 59 1016.8
20260510183528 68 202 1.0 1.0 0.00 0.01 0.01 56 1016.6
20260510183023 69 202 2.0 2.0 0.00 0.01 0.01 57 1016.3
20260510182520 71 202 2.0 2.0 0.00 0.01 0.01 53 1016.5
20260510182020 69 202 0.0 0.0 0.00 0.01 0.01 55 1016.3
20260510181519 68 202 2.0 2.0 0.00 0.01 0.01 58 1016.5
20260510181014 67 202 1.0 1.0 0.00 0.01 0.01 63 1016.4
20260510180512 67 202 1.0 1.0 0.00 0.01 0.01 57 1016.5
20260510180010 68 202 2.0 2.0 0.00 0.01 0.01 60 1016.4
20260510175504 69 202 1.0 1.0 0.00 0.01 0.01 61 1016.5
20260510175001 71 202 2.0 2.0 0.00 0.01 0.01 52 1016.3
20260510174459 70 202 2.0 2.0 0.00 0.01 0.01 54 1016.4
20260510173955 69 202 1.0 1.0 0.00 0.01 0.01 58 1016.5
20260510173451 68 202 2.0 2.0 0.00 0.01 0.01 60 1016.6
20260510172948 68 202 2.0 2.0 0.00 0.01 0.01 61 1016.6
20260510172443 69 202 1.0 1.0 0.00 0.01 0.01 62 1016.7
20260510171940 68 202 1.0 1.0 0.00 0.01 0.01 59 1016.8
20260510171437 68 202 0.0 0.0 0.00 0.01 0.01 61 1016.8
20260510170933 67 202 0.0 1.0 0.00 0.01 0.01 61 1017.0
20260510170430 68 202 1.0 1.0 0.00 0.01 0.01 62 1017.2
20260510165926 68 202 1.0 1.0 0.00 0.01 0.01 61 1017.2
20260510165422 67 202 2.0 3.0 0.00 0.01 0.01 63 1017.1
20260510164919 66 202 1.0 1.0 0.00 0.01 0.01 64 1016.9
20260510164417 66 203 1.0 1.0 0.00 0.01 0.01 61 1017.0
20260510163916 66 203 0.0 0.0 0.00 0.01 0.01 67 1017.2
20260510163414 65 202 1.0 1.0 0.00 0.01 0.01 64 1017.4
20260510162913 65 202 3.0 3.0 0.00 0.01 0.01 66 1017.2
20260510162411 65 202 1.0 2.0 0.00 0.01 0.01 67 1017.4
20260510161907 65 202 1.0 1.0 0.00 0.01 0.01 68 1017.6
20260510161403 65 202 1.0 1.0 0.00 0.01 0.01 68 1017.4
20260510160900 63 203 3.0 3.0 0.00 0.01 0.01 66 1017.2
20260510160357 63 202 2.0 2.0 0.00 0.01 0.01 71 1017.5
20260510155855 64 202 2.0 4.0 0.00 0.01 0.01 67 1017.3
20260510155353 64 202 1.0 1.0 0.00 0.01 0.01 68 1017.5
20260510154849 64 202 1.0 1.0 0.00 0.01 0.01 65 1017.5
20260510154345 64 203 2.0 2.0 0.00 0.01 0.01 65 1017.3
20260510153839 64 203 0.0 1.0 0.00 0.01 0.01 68 1017.5
20260510153335 63 203 0.0 0.0 0.00 0.01 0.01 73 1017.4
20260510152832 63 202 0.0 0.0 0.00 0.01 0.01 72 1017.6
20260510152330 63 202 0.0 0.0 0.00 0.01 0.01 71 1017.2
20260510151826 62 202 1.0 1.0 0.00 0.01 0.01 74 1017.4
20260510151324 62 202 2.0 2.0 0.00 0.01 0.01 76 1017.7
20260510150819 61 202 1.0 2.0 0.00 0.01 0.01 74 1017.6
20260510150315 60 202 2.0 2.0 0.00 0.01 0.01 77 1017.7
20260510145811 60 202 1.0 2.0 0.00 0.01 0.01 78 1017.6
20260510145308 59 202 1.0 1.0 0.00 0.01 0.01 76 1017.6
20260510144805 59 202 1.0 1.0 0.00 0.01 0.01 82 1017.7
20260510144302 58 202 1.0 1.0 0.00 0.01 0.01 84 1017.8
20260510143801 58 202 1.0 1.0 0.00 0.01 0.01 81 1017.7
20260510143257 58 202 0.0 0.0 0.00 0.01 0.01 85 1017.8
20260510142754 57 202 1.0 1.0 0.00 0.01 0.01 87 1017.8
20260510142251 56 202 0.0 0.0 0.00 0.01 0.01 86 1017.9
20260510141748 56 202 1.0 1.0 0.00 0.01 0.01 89 1018.0
20260510141246 56 202 1.0 1.0 0.05 0.01 0.01 91 1018.2
20260510140743 55 202 1.0 1.0 0.05 0.01 0.01 93 1018.0
20260510140238 55 202 0.0 0.0 0.00 0.00 0.00 95 1018.0
20260510135738 54 202 0.0 0.0 0.00 0.00 0.00 96 1018.0
20260510135233 54 202 0.0 0.0 0.00 0.00 0.00 97 1017.7
20260510134732 53 202 0.0 0.0 0.00 0.00 0.00 97 1017.9
20260510134228 53 202 0.0 0.0 0.00 0.00 0.00 97 1017.7
20260510133724 53 202 0.0 0.0 0.00 0.00 0.00 97 1017.6
20260510133220 53 202 0.0 0.0 0.00 0.00 0.00 97 1017.8
20260510132716 53 202 0.0 0.0 0.00 0.00 0.00 97 1017.9
20260510132214 53 202 0.0 0.0 0.00 0.00 0.00 97 1017.9
20260510131711 52 202 1.0 1.0 0.00 0.00 0.00 97 1018.0
20260510131209 52 202 0.0 0.0 0.00 0.00 0.00 97 1017.7
20260510130705 52 202 0.0 1.0 0.00 0.00 0.00 97 1017.8
20260510130202 51 202 0.0 0.0 0.00 0.00 0.00 97 1017.9
20260510125658 51 202 0.0 0.0 0.00 0.00 0.00 97 1017.9
20260510125155 51 202 0.0 0.0 0.00 0.00 0.00 97 1018.1
20260510124652 51 202 0.0 0.0 0.00 0.00 0.00 97 1018.1
20260510124149 51 202 0.0 0.0 0.00 0.00 0.00 97 1018.1
20260510123644 50 202 0.0 0.0 0.00 0.00 0.00 97 1017.9
20260510123140 50 202 0.0 0.0 0.00 0.00 0.00 97 1017.9
20260510122637 50 202 0.0 0.0 0.00 0.00 0.00 97 1018.0
20260510122132 50 202 1.0 0.0 0.00 0.00 0.00 97 1017.8
20260510121629 49 202 0.0 0.0 0.00 0.00 0.00 97 1017.8
20260510121126 49 202 0.0 0.0 0.00 0.00 0.00 97 1018.1
20260510120625 49 202 0.0 0.0 0.00 0.00 0.00 97 1018.0
20260510120119 49 202 0.0 0.0 0.00 0.00 0.00 97 1018.1
20260510115616 49 202 0.0 0.0 0.00 0.00 0.00 97 1018.1
20260510115114 48 202 0.0 0.0 0.00 0.00 0.00 97 1018.0
20260510114610 48 202 0.0 0.0 0.00 0.00 0.00 97 1017.9
20260510114106 48 202 0.0 0.0 0.00 0.00 0.00 97 1018.0
20260510113601 48 202 0.0 0.0 0.00 0.00 0.00 97 1017.9
20260510113059 48 202 0.0 0.0 0.00 0.00 0.00 97 1018.0
20260510112555 48 202 0.0 0.0 0.00 0.00 0.00 97 1018.0
20260510112052 48 202 0.0 0.0 0.00 0.00 0.00 97 1017.6
20260510111548 48 202 0.0 0.0 0.00 0.00 0.00 97 1017.3
20260510111044 48 202 0.0 0.0 0.00 0.00 0.00 97 1017.6
20260510110541 47 202 0.0 0.0 0.00 0.00 0.00 97 1017.4
20260510110037 47 202 0.0 0.0 0.00 0.00 0.00 97 1017.4
20260510105532 47 202 0.0 0.0 0.00 0.00 0.00 97 1017.4
20260510105027 47 202 0.0 0.0 0.00 0.00 0.00 97 1017.1
20260510104524 47 202 0.0 0.0 0.00 0.00 0.00 97 1017.1
20260510104020 47 202 0.0 0.0 0.00 0.00 0.00 97 1017.1
20260510103518 47 202 0.0 0.0 0.00 0.00 0.00 97 1016.8
20260510103014 47 202 0.0 0.0 0.00 0.00 0.00 97 1016.9
20260510102510 46 202 0.0 0.0 0.00 0.00 0.00 97 1016.9
20260510102007 46 202 0.0 0.0 0.00 0.00 0.00 97 1017.0
20260510101504 46 204 0.0 0.0 0.00 0.00 0.00 97 1016.5
20260510101003 46 204 0.0 0.0 0.00 0.00 0.00 97 1016.7
20260510100458 46 204 0.0 0.0 0.00 0.00 0.00 97 1016.3
20260510095955 46 204 0.0 0.0 0.00 0.00 0.00 97 1016.6
20260510095450 46 204 0.0 0.0 0.00 0.00 0.00 97 1016.6
20260510094950 46 204 0.0 0.0 0.00 0.00 0.00 97 1016.7
20260510094445 46 204 0.0 0.0 0.00 0.00 0.00 97 1016.8
20260510093941 46 204 0.0 0.0 0.00 0.00 0.00 97 1016.4
20260510093436 46 204 0.0 0.0 0.00 0.00 0.00 97 1016.5
20260510092933 46 204 0.0 0.0 0.00 0.00 0.00 97 1016.5
20260510092431 46 204 0.0 0.0 0.00 0.00 0.00 97 1016.6
20260510091930 46 204 0.0 0.0 0.00 0.00 0.00 97 1016.9
20260510091428 46 204 0.0 0.0 0.00 0.00 0.00 97 1017.0
20260510090924 46 204 0.0 0.0 0.00 0.00 0.00 97 1016.8
20260510090421 46 204 0.0 0.0 0.00 0.00 0.00 97 1016.7
20260510085916 46 204 0.0 0.0 0.00 0.00 0.00 97 1016.7
20260510085412 46 204 0.0 0.0 0.00 0.00 0.00 97 1016.7
20260510084907 46 204 0.0 0.0 0.00 0.00 0.00 97 1016.9
20260510084405 46 204 0.0 0.0 0.00 0.00 0.00 97 1016.8
20260510083901 46 204 0.0 0.0 0.00 0.00 0.00 97 1016.4
20260510083358 46 204 0.0 0.0 0.00 0.00 0.00 97 1016.9
20260510082853 46 204 0.0 0.0 0.00 0.00 0.00 97 1016.7
20260510082351 46 204 0.0 0.0 0.00 0.00 0.00 97 1016.7
20260510081850 46 204 0.0 0.0 0.00 0.00 0.00 97 1016.8
20260510081346 46 204 0.0 0.0 0.00 0.00 0.00 97 1016.8
20260510080843 46 204 0.0 0.0 0.00 0.00 0.00 97 1016.5
20260510080336 46 204 0.0 0.0 0.00 0.00 0.00 97 1016.7
20260510075834 46 204 0.0 0.0 0.00 0.00 0.00 97 1016.6
20260510075332 46 204 0.0 0.0 0.00 0.00 0.00 97 1016.9
20260510074828 46 204 0.0 0.0 0.00 0.00 0.00 97 1016.6
20260510074325 46 204 0.0 0.0 0.00 0.00 0.00 97 1016.5
20260510073821 46 204 0.0 0.0 0.00 0.00 0.00 97 1016.6
20260510073317 46 204 0.0 0.0 0.00 0.00 0.00 97 1016.5
20260510072813 46 204 0.0 0.0 0.00 0.00 0.00 97 1016.4
20260510072310 46 204 0.0 0.0 0.00 0.00 0.00 97 1016.6
20260510071807 46 204 0.0 0.0 0.00 0.00 0.00 97 1016.7
20260510071303 46 204 0.0 0.0 0.00 0.00 0.00 97 1016.8
20260510070803 46 204 0.0 0.0 0.00 0.00 0.00 97 1016.8
20260510070259 46 204 0.0 0.0 0.00 0.00 0.00 96 1016.9
20260510065758 46 204 0.0 0.0 0.00 0.00 0.00 96 1016.8
20260510065255 46 204 0.0 0.0 0.00 0.00 0.00 96 1016.7
20260510064752 46 204 0.0 0.0 0.00 0.00 0.00 96 1016.7
20260510064250 46 204 0.0 0.0 0.00 0.00 0.00 96 1016.8
20260510063746 46 204 0.0 0.0 0.00 0.00 0.00 96 1016.9
20260510063242 46 204 0.0 0.0 0.00 0.00 0.00 96 1016.8
20260510062739 46 204 0.0 0.0 0.00 0.00 0.00 96 1016.8
20260510062235 46 204 0.0 0.0 0.00 0.00 0.00 96 1016.6
20260510061730 46 204 0.0 0.0 0.00 0.00 0.00 96 1016.6
20260510061228 46 204 0.0 0.0 0.00 0.00 0.00 96 1016.8
20260510060724 46 204 0.0 0.0 0.00 0.00 0.00 96 1016.7
20260510060220 46 204 0.0 0.0 0.00 0.00 0.00 96 1016.9
20260510055717 46 204 0.0 0.0 0.00 0.00 0.00 96 1016.8
20260510055215 46 204 0.0 0.0 0.00 0.00 0.00 96 1016.7
20260510054710 46 204 0.0 0.0 0.00 0.00 0.00 96 1016.8
20260510054206 46 204 0.0 0.0 0.00 0.00 0.00 96 1017.0
20260510053706 46 204 0.0 0.0 0.00 0.00 0.00 96 1016.9
20260510053202 46 204 0.0 0.0 0.00 0.00 0.00 96 1017.0
20260510052658 46 204 0.0 0.0 0.00 0.00 0.00 96 1017.2
20260510052154 45 204 0.0 0.0 0.00 0.00 0.00 96 1017.2
20260510051650 45 204 0.0 0.0 0.00 0.00 0.00 96 1017.4
20260510051147 45 204 0.0 0.0 0.00 0.00 0.00 96 1017.4
20260510050644 45 204 0.0 0.0 0.00 0.00 0.00 96 1017.4
20260510050142 45 204 0.0 0.0 0.00 0.00 0.00 96 1017.5
20260510045638 45 204 0.0 0.0 0.00 0.00 0.00 96 1017.4
20260510045135 45 204 0.0 0.0 0.00 0.00 0.00 96 1017.2
20260510044631 45 204 0.0 0.0 0.00 0.00 0.00 96 1017.3
20260510044128 45 204 0.0 0.0 0.00 0.00 0.00 96 1017.2
20260510043624 45 204 0.0 0.0 0.00 0.00 0.00 96 1017.3
20260510043121 45 204 0.0 0.0 0.00 0.00 0.00 96 1017.4
20260510042619 45 204 0.0 0.0 0.00 0.00 0.00 96 1017.5
20260510042114 45 204 0.0 0.0 0.00 0.00 0.00 96 1017.3
20260510041611 45 204 0.0 0.0 0.00 0.00 0.00 96 1017.3
20260510041108 45 204 0.0 0.0 0.00 0.00 0.00 96 1017.2
20260510040606 45 204 0.0 0.0 0.00 0.00 0.00 96 1017.2
20260510035558 45 204 0.0 0.0 0.00 0.68 0.68 96 1017.3
20260510035058 45 204 0.0 0.0 0.00 0.68 0.68 96 1017.3
20260510034556 45 204 0.0 0.0 0.00 0.68 0.68 96 1017.5
20260510034053 45 204 0.0 0.0 0.00 0.68 0.68 96 1017.4
20260510033549 45 204 0.0 0.0 0.00 0.68 0.68 96 1017.8
20260510033047 45 204 0.0 0.0 0.00 0.68 0.68 96 1017.7
20260510032543 45 204 0.0 0.0 0.00 0.68 0.68 96 1017.7
20260510032039 45 204 0.0 0.0 0.00 0.68 0.68 96 1017.6
20260510031539 45 204 0.0 0.0 0.00 0.68 0.68 96 1017.7
20260510031035 45 204 0.0 0.0 0.00 0.68 0.68 96 1017.9
20260510030531 45 204 0.0 0.0 0.00 0.68 0.68 96 1017.9
20260510030028 45 204 0.0 0.0 0.00 0.68 0.68 96 1018.1
20260510025525 45 204 0.0 0.0 0.00 0.68 0.68 96 1018.0
20260510025023 45 204 0.0 0.0 0.00 0.68 0.68 96 1018.0
20260510024520 45 204 0.0 0.0 0.00 0.68 0.68 96 1018.0
20260510024015 45 204 0.0 0.0 0.00 0.68 0.68 96 1018.2
20260510023511 45 204 0.0 0.0 0.07 0.68 0.68 96 1018.3
20260510023009 45 204 0.0 0.0 0.07 0.68 0.68 96 1018.3
20260510022508 45 204 0.0 0.0 0.00 0.67 0.67 96 1018.2
20260510022008 45 204 0.0 0.0 0.00 0.67 0.67 96 1018.2
20260510021505 45 204 0.0 0.0 0.00 0.67 0.67 96 1018.1
20260510021002 45 204 0.0 0.0 0.00 0.67 0.67 96 1018.0
20260510020456 45 204 0.0 0.0 0.00 0.67 0.67 96 1018.3
20260510015952 45 204 0.0 0.0 0.00 0.67 0.67 96 1018.2
20260510015448 45 204 0.0 0.0 0.00 0.67 0.67 96 1018.6
20260510014943 45 204 0.0 0.0 0.00 0.67 0.67 96 1018.2
20260510014441 45 204 0.0 0.0 0.00 0.67 0.67 96 1018.4
20260510013938 45 204 0.0 0.0 0.00 0.67 0.67 96 1018.3
20260510013432 45 204 0.0 0.0 0.00 0.67 0.67 96 1018.5
20260510012928 45 204 0.0 0.0 0.00 0.67 0.67 96 1018.5
20260510012423 45 204 0.0 0.0 0.00 0.67 0.67 96 1018.3
20260510011918 45 204 0.0 0.0 0.00 0.67 0.67 96 1018.2
20260510011413 45 204 0.0 0.0 0.00 0.67 0.67 96 1018.3
20260510010910 45 204 0.0 0.0 0.00 0.67 0.67 96 1018.4
20260510010408 45 204 0.0 0.0 0.00 0.67 0.67 96 1018.3
20260510005904 45 204 0.0 0.0 0.00 0.67 0.67 96 1018.5
20260510005400 46 204 0.0 0.0 0.00 0.67 0.67 96 1018.3
20260510004858 45 204 0.0 0.0 0.00 0.67 0.67 96 1018.3
20260510004355 45 204 0.0 0.0 0.00 0.67 0.67 96 1018.2
20260510003853 45 204 0.0 0.0 0.00 0.67 0.67 96 1018.1
20260510003349 45 204 0.0 0.0 0.00 0.67 0.67 96 1018.1
20260510002848 45 204 0.0 0.0 0.00 0.67 0.67 96 1017.9
20260510002346 46 204 0.0 0.0 0.00 0.67 0.67 96 1018.0
20260510001842 46 204 0.0 0.0 0.00 0.67 0.67 95 1018.2
20260510001340 46 204 0.0 0.0 0.00 0.67 0.67 95 1018.3
20260510000836 46 204 0.0 0.0 0.00 0.67 0.67 95 1018.0
20260510000334 46 204 0.0 0.0 0.00 0.67 0.67 95 1017.9
20260509235830 46 204 0.0 0.0 0.00 0.67 0.67 95 1017.7
20260509235327 46 204 0.0 0.0 0.00 0.67 0.67 95 1017.9
20260509234823 46 204 0.0 0.0 0.00 0.67 0.67 95 1017.7
20260509234319 46 204 0.0 0.0 0.00 0.67 0.67 95 1017.5
20260509233818 45 204 0.0 0.0 0.00 0.67 0.67 95 1017.7
20260509233315 45 204 0.0 0.0 0.00 0.67 0.67 95 1017.7
20260509232811 45 204 0.0 0.0 0.00 0.67 0.67 95 1017.6
20260509232309 45 204 0.0 0.0 0.00 0.67 0.67 95 1017.4
20260509231805 46 204 0.0 0.0 0.00 0.67 0.67 95 1017.7
20260509231302 46 204 0.0 0.0 0.00 0.67 0.67 95 1017.7